Skip Page Navigation
NASA JPL Caltech
NASA Logo - Jet Propulsion Laboratory + View the NASA Portal
+ Near-Earth Object (NEO) Program
Search JPL
JPL Home Earth Solar System Stars & Galaxies Technology
JPL Solar System Dynamics
BODIES ORBITS EPHEMERIDES TOOLS PHYSICAL DATA DISCOVERY FAQ SITE MAP
JPL Small-Body Database Browser
Search: [ help ]  
16076 Barryhaase (1999 RV131)
Classification: Main-belt Asteroid          SPK-ID: 2016076
Ephemeris | Orbit Diagram | Orbital Elements | Physical Parameters | Discovery Circumstances ]

[ show orbit diagram ]
Orbital Elements at Epoch 2456800.5 (2014-May-23.0) TDB
Reference: JPL 6 (heliocentric ecliptic J2000)
 Element Value Uncertainty (1-sigma)   Units 
e .09298915833306606 7.036e-08  
a 2.563478998634694 2.2972e-08 AU
q 2.325103244147163 1.8713e-07 AU
i 9.807030340456281 9.4754e-06 deg
node 195.049435481632 3.2223e-05 deg
peri 312.8720781449863 6.1756e-05 deg
M 39.24976296958454 4.9284e-05 deg
tp 2456637.052752921934
(2013-Dec-10.55275292)
0.00020559 JED
period 1499.143039250989
4.10
2.0152e-05
5.517e-08
d
yr
n .2401371920986709 3.2279e-09 deg/d
Q 2.801854753122226 2.5109e-08 AU
  Orbit Determination Parameters
   # obs. used (total)      932  
   data-arc span      9192 days (25.17 yr)  
   first obs. used      1989-02-05  
   last obs. used      2014-04-07  
   planetary ephem.      DE431  
   SB-pert. ephem.      SB431-BIG16  
   condition code      0  
   fit RMS      .52311  
   data source      ORB  
   producer      Otto Matic  
   solution date      2014-Apr-17 14:08:32  

Additional Information
 Earth MOID = 1.34693 AU 
 T_jup = 3.407 
[ show covariance matrix ]

Ephemeris | Orbit Diagram | Orbital Elements | Physical Parameters | Discovery Circumstances ]

Physical Parameter Table
Parameter Symbol Value Units Sigma Reference Notes
absolute magnitude H 13.6 mag n/a MPO253476  

16076 Barryhaase           Discovered 1999 Sept. 9 by the Lincoln Laboratory Near-Earth Asteroid Research Team at Socorro.
Barry Haase mentored a finalist in the 2003 Intel Science Talent Search, a science competition for high school seniors. He teaches at the C. Leon King High School, Tampa, Florida.
NOTE: some special characters may not display properly (any characters within {} are an attempt to place the proper accent above a character)
Reference: 20030216/MPCPages.arcLast Updated: 2011-11-22

Alternate Designations
 1999 RV131 = 1989 CT3 
Ephemeris | Orbit Diagram | Orbital Elements | Physical Parameters | Discovery Circumstances ]
ABOUT SSD CREDITS/AWARDS PRIVACY/COPYRIGHT GLOSSARY LINKS
FirstGov 2014-Apr-25 06:40 UT
(server date/time)  
NASA Home Page
Site Manager:   Donald K. Yeomans
Webmaster  Alan B. Chamberlin